Weather reports worldwide

Advertisment
Rostherne No 2, United Kingdom (3351): temperature & dewpoint: 17.07.2019 09:00:00 - 23.07.2019 09:00:00 (BST)Rostherne No 2, United Kingdom (3351): wind speed & gusts: 17.07.2019 09:00:00 - 23.07.2019 09:00:00 (BST)Rostherne No 2, United Kingdom (3351): wind direction: 17.07.2019 09:00:00 - 23.07.2019 09:00:00 (BST)Rostherne No 2, United Kingdom (3351): reduced air pressure: 17.07.2019 09:00:00 - 23.07.2019 09:00:00 (BST)Rostherne No 2, United Kingdom (3351): visibility: 17.07.2019 09:00:00 - 23.07.2019 09:00:00 (BST)Rostherne No 2, United Kingdom (3351): sunshine duration: 17.07.2019 09:00:00 - 23.07.2019 09:00:00 (BST)Rostherne No 2, United Kingdom (3351): precipitation: 17.07.2019 09:00:00 - 23.07.2019 09:00:00 (BST)
Date & Time tt [°C] td [°C] ff [km/h] ff [kn] fx [km/h] fx [kn] dd ppp [hPa] vv [km] sd [min] rr [mm]
23.07.2019 09:00:00 20,4 16,6 11 6 - - SSE 1018,9 18 60 -
23.07.2019 08:00:00 18,8 16,0 9 5 - - S 1019,3 25 60 0,0
23.07.2019 07:00:00 16,9 16,4 5 3 - - ESE 1019,4 25 54 0,0
23.07.2019 06:00:00 12,9 12,6 5 3 - - SSE 1019,6 11 0 0,0
23.07.2019 05:00:00 13,5 12,8 5 3 - - SE 1019,7 11 0 0,0
23.07.2019 04:00:00 14,8 13,6 5 3 - - S 1019,7 30 0 0,0
23.07.2019 03:00:00 16,2 14,6 5 3 - - S 1019,9 30 0 0,0
23.07.2019 02:00:00 16,9 15,0 5 3 - - SSW 1020,1 35 0 0,0
23.07.2019 01:00:00 17,4 14,7 8 4 - - S 1020,1 45 - 0,0
23.07.2019 00:00:00 18,9 16,0 5 3 - - SW 1020,4 40 0 0,0
22.07.2019 23:00:00 19,2 15,9 8 4 - - WSW 1020,3 40 0 0,0
22.07.2019 22:00:00 19,6 15,6 8 4 - - WSW 1019,9 40 0 0,0
22.07.2019 21:00:00 21,2 15,7 15 8 - - WSW 1019,6 40 6 0,0
22.07.2019 20:00:00 23,1 16,1 13 7 - - WSW 1019,3 30 48 0,0
22.07.2019 19:00:00 23,8 15,5 15 8 - - WSW 1019,0 35 60 0,0
22.07.2019 18:00:00 24,1 15,9 24 13 48 26 WSW 1018,8 30 60 0,0
22.07.2019 17:00:00 24,2 15,8 26 14 50 27 SW 1018,8 35 60 0,0
22.07.2019 16:00:00 25,0 17,0 18 10 - - SW 1018,8 26 54 0,0
22.07.2019 15:00:00 24,7 17,8 16 9 - - SW 1018,6 45 54 0,0
22.07.2019 14:00:00 24,4 17,7 18 10 48 26 WSW 1018,6 30 54 0,0
22.07.2019 13:00:00 24,4 16,9 24 13 48 26 WSW 1018,6 25 60 0,0
22.07.2019 12:00:00 23,9 16,9 24 13 - - W 1018,8 23 54 0,0
22.07.2019 11:00:00 23,0 15,8 22 12 - - W 1018,6 26 60 0,0
22.07.2019 10:00:00 22,2 15,5 22 12 - - WSW 1018,0 22 54 0,0
22.07.2019 09:00:00 21,5 17,2 16 9 - - WSW 1017,5 40 60 0,0
22.07.2019 08:00:00 21,0 17,4 18 10 - - SW 1016,9 50 36 0,0
22.07.2019 07:00:00 19,8 17,0 15 8 - - S 1016,3 45 0 0,0
22.07.2019 06:00:00 19,4 17,1 15 8 - - SSW 1015,7 45 0 0,0
22.07.2019 05:00:00 19,1 16,9 15 8 - - SSW 1015,4 50 0 0,0
22.07.2019 04:00:00 18,6 16,8 13 7 - - S 1015,3 45 0 0,0
22.07.2019 03:00:00 18,1 16,1 13 7 - - SSW 1015,3 50 0 0,0
22.07.2019 02:00:00 17,9 15,7 16 9 - - SSW 1015,5 50 0 0,0
22.07.2019 01:00:00 17,1 15,5 15 8 - - S 1015,6 30 - 0,4
22.07.2019 00:00:00 16,6 15,2 15 8 - - S 1016,0 25 0 1,6
21.07.2019 23:00:00 17,2 14,4 18 10 - - S 1016,1 14 0 0,6
21.07.2019 22:00:00 17,9 13,5 16 9 - - S 1016,5 45 0 0,0
21.07.2019 21:00:00 19,7 12,3 15 8 - - SSW 1017,0 50 0 0,0
21.07.2019 20:00:00 20,1 13,0 13 7 - - SSW 1016,9 50 18 0,0
21.07.2019 19:00:00 20,7 13,4 13 7 - - SSW 1017,1 40 0 0,0
21.07.2019 18:00:00 20,3 13,7 15 8 - - S 1017,5 30 0 0,0
21.07.2019 17:00:00 20,2 13,9 11 6 - - S 1017,9 30 0 0,0
21.07.2019 16:00:00 20,2 13,4 13 7 - - SW 1018,4 50 0 0,0
21.07.2019 15:00:00 20,3 14,2 11 6 - - SSW 1018,4 45 0 0,0
21.07.2019 14:00:00 19,5 12,9 16 9 - - WSW 1018,7 35 0 0,0
21.07.2019 13:00:00 19,7 12,6 18 10 - - WSW 1018,6 29 12 0,0
21.07.2019 12:00:00 20,2 13,7 15 8 - - WSW 1018,3 40 30 0,0
21.07.2019 11:00:00 19,4 13,8 13 7 - - SW 1018,2 50 18 0,0
21.07.2019 10:00:00 18,6 14,1 11 6 - - SSW 1017,8 45 48 0,0
21.07.2019 09:00:00 17,3 13,9 11 6 - - SSW 1017,5 45 54 0,0
21.07.2019 08:00:00 15,9 13,4 13 7 - - SSW 1017,1 40 42 0,0
21.07.2019 07:00:00 14,6 13,0 8 4 - - S 1016,6 30 0 0,0
21.07.2019 06:00:00 13,8 12,4 8 4 - - S 1016,3 25 0 0,0
21.07.2019 05:00:00 13,7 12,0 8 4 - - SSW 1015,9 30 0 0,0
21.07.2019 04:00:00 13,4 11,7 5 3 - - SW 1015,5 30 0 0,0
21.07.2019 03:00:00 14,5 12,0 9 5 - - WSW 1015,2 50 0 0,0
21.07.2019 02:00:00 15,0 12,0 8 4 - - SW 1015,0 45 0 0,0
21.07.2019 01:00:00 15,1 11,6 5 3 - - SSW 1014,7 50 - 0,0
21.07.2019 00:00:00 15,2 11,4 5 3 - - WSW 1014,4 45 0 0,0
20.07.2019 23:00:00 15,7 11,7 8 4 - - WSW 1013,9 50 0 0,0
20.07.2019 22:00:00 15,4 10,9 9 5 - - W 1013,3 50 0 0,0
20.07.2019 21:00:00 15,9 10,7 13 7 - - W 1012,3 50 0 0,0
20.07.2019 20:00:00 16,8 10,4 18 10 - - WNW 1011,5 45 0 0,0
20.07.2019 19:00:00 17,9 10,8 22 12 - - WNW 1010,6 45 48 0,0
20.07.2019 18:00:00 18,2 11,2 21 11 - - NW 1009,8 35 24 0,0
20.07.2019 17:00:00 19,0 12,2 21 11 - - WNW 1009,2 45 6 0,0
20.07.2019 16:00:00 18,3 12,0 28 15 - - WNW 1008,2 26 12 0,0
20.07.2019 15:00:00 18,8 12,9 28 15 46 25 WNW 1007,2 17 18 0,0
20.07.2019 14:00:00 18,2 14,0 26 14 50 27 WNW 1006,1 30 6 0,0
20.07.2019 13:00:00 17,6 13,8 26 14 46 25 W 1004,9 30 18 0,0
20.07.2019 12:00:00 19,6 15,6 29 16 - - W 1003,5 26 12 0,0
20.07.2019 11:00:00 18,6 14,6 22 12 - - WSW 1002,8 35 12 0,0
20.07.2019 10:00:00 16,3 14,6 16 9 - - SW 1002,1 5 0 0,2
20.07.2019 09:00:00 16,8 13,2 21 11 - - SSW 1001,2 40 0 0,0
20.07.2019 08:00:00 17,8 14,4 18 10 - - S 1000,7 50 54 0,0
20.07.2019 07:00:00 16,8 14,7 16 9 - - S 1000,8 45 0 0,0
20.07.2019 06:00:00 16,3 14,9 13 7 - - SSE 1001,1 35 0 0,0
20.07.2019 05:00:00 15,8 14,8 13 7 - - S 1001,4 27 0 0,0
20.07.2019 04:00:00 15,6 14,5 13 7 - - S 1001,8 27 0 0,0
20.07.2019 03:00:00 15,2 13,9 9 5 - - SE 1002,7 22 0 0,0
20.07.2019 02:00:00 15,9 14,5 18 10 - - S 1003,0 24 0 0,0
20.07.2019 01:00:00 16,4 14,4 15 8 - - S 1003,2 23 - 0,0
20.07.2019 00:00:00 16,6 14,6 15 8 - - S 1003,5 30 0 0,0
19.07.2019 23:00:00 17,1 14,8 13 7 - - S 1003,8 30 0 0,0
19.07.2019 22:00:00 17,5 15,4 15 8 - - S 1004,4 9 0 0,0
19.07.2019 21:00:00 17,7 15,7 11 6 - - S 1004,4 20 0 0,0
19.07.2019 20:00:00 18,0 15,9 11 6 - - S 1004,3 24 0 0,0
19.07.2019 19:00:00 19,1 17,7 8 4 - - SSW 1004,2 40 0 0,0
19.07.2019 18:00:00 18,7 17,6 9 5 - - SW 1004,3 30 0 11,6
19.07.2019 17:00:00 17,6 17,0 9 5 - - S 1004,5 2,0 0 3,6
19.07.2019 16:00:00 17,2 16,3 18 10 - - SSE 1005,0 8 0 0,6
19.07.2019 15:00:00 19,1 16,1 22 12 - - S 1005,5 45 12 0,0
19.07.2019 14:00:00 16,7 15,7 13 7 - - SSE 1006,3 30 0 0,4
19.07.2019 13:00:00 15,3 14,9 15 8 - - SE 1006,6 7 0 0,4
19.07.2019 12:00:00 14,6 14,1 16 9 - - SE 1007,8 4,0 0 4,0
19.07.2019 11:00:00 14,1 13,7 11 6 - - SE 1008,3 4,0 0 5,2
19.07.2019 10:00:00 14,6 13,8 11 6 - - SSE 1008,9 8 0 0,4
19.07.2019 09:00:00 14,6 13,3 13 7 - - S 1009,3 21 0 0,2
19.07.2019 08:00:00 13,4 12,4 11 6 - - SSE 1009,7 15 0 0,4
19.07.2019 07:00:00 13,3 12,1 8 4 - - S 1009,9 21 0 0,6
19.07.2019 06:00:00 13,0 11,3 9 5 - - SSE 1009,8 21 0 0,0
19.07.2019 05:00:00 13,4 11,3 13 7 - - S 1010,1 30 0 0,0
19.07.2019 04:00:00 13,4 11,5 5 3 - - SE 1010,1 30 0 0,0
19.07.2019 03:00:00 13,3 12,0 8 4 - - SSE 1010,7 22 0 0,0
19.07.2019 02:00:00 12,8 11,4 8 4 - - SE 1010,6 35 0 0,0
19.07.2019 01:00:00 12,8 11,1 5 3 - - SSE 1010,9 35 - 0,0
19.07.2019 00:00:00 13,4 11,3 8 4 - - E 1010,9 35 0 0,0
18.07.2019 23:00:00 13,4 10,4 5 3 - - S 1010,8 45 0 0,0
18.07.2019 22:00:00 15,1 11,0 5 3 - - SSW 1010,6 45 0 0,0
18.07.2019 21:00:00 16,2 10,9 8 4 - - WSW 1010,3 50 18 0,0
18.07.2019 20:00:00 17,2 11,6 16 9 - - WNW 1010,0 27 0 0,0
18.07.2019 19:00:00 18,2 11,0 15 8 - - W 1009,5 50 18 0,0
18.07.2019 18:00:00 18,7 11,4 15 8 - - W 1009,3 40 6 0,2
18.07.2019 17:00:00 18,8 11,8 18 10 - - W 1009,4 45 0 0,0
18.07.2019 16:00:00 18,5 12,5 15 8 - - W 1009,3 27 6 0,0
18.07.2019 15:00:00 19,0 12,6 15 8 - - WNW 1009,2 45 0 0,0
18.07.2019 14:00:00 17,6 11,7 15 8 - - WNW 1009,4 40 6 0,0
18.07.2019 13:00:00 18,8 11,8 22 12 - - W 1009,0 40 6 0,0
18.07.2019 12:00:00 17,4 11,6 15 8 - - W 1009,0 40 12 0,0
18.07.2019 11:00:00 17,1 12,8 16 9 - - W 1008,7 28 6 0,0
18.07.2019 10:00:00 17,4 15,0 16 9 - - W 1008,6 45 6 0,0
18.07.2019 09:00:00 17,0 14,6 13 7 - - W 1008,4 25 48 0,0
18.07.2019 08:00:00 15,0 14,5 9 5 - - W 1008,5 18 18 0,0
18.07.2019 07:00:00 14,1 13,7 8 4 - - W 1008,1 14 0 0,0
18.07.2019 06:00:00 14,2 13,9 5 3 - - W 1007,7 13 0 0,0
18.07.2019 05:00:00 14,0 13,7 4 2 - - SW 1007,3 16 0 0,2
18.07.2019 04:00:00 14,1 13,6 11 6 - - WNW 1007,6 30 0 1,4
18.07.2019 03:00:00 15,1 14,2 11 6 - - SSW 1007,3 4,2 0 1,2
18.07.2019 02:00:00 15,4 14,0 16 9 - - S 1007,7 29 0 0,0
18.07.2019 01:00:00 15,4 14,0 11 6 - - S 1008,2 22 - 0,0
18.07.2019 00:00:00 15,4 14,3 15 8 - - S 1008,5 18 0 0,8
17.07.2019 23:00:00 15,9 14,3 13 7 - - S 1009,0 26 0 0,0
17.07.2019 22:00:00 15,1 14,2 8 4 - - SSE 1009,8 20 0 0,0
17.07.2019 21:00:00 15,2 14,5 9 5 - - S 1010,0 15 0 0,0
17.07.2019 20:00:00 15,3 13,6 9 5 - - SSW 1010,5 24 0 0,4
17.07.2019 19:00:00 16,3 14,3 8 4 - - SSW 1010,8 8 0 0,0
17.07.2019 18:00:00 16,9 14,3 5 3 - - SW 1011,2 18 0 0,6
17.07.2019 17:00:00 17,6 13,4 15 8 - - W 1011,6 19 0 0,0
17.07.2019 16:00:00 21,2 11,1 16 9 - - WSW 1011,5 30 30 0,0
17.07.2019 15:00:00 22,5 13,4 15 8 - - WSW 1011,8 30 24 0,0
17.07.2019 14:00:00 22,0 15,1 16 9 - - W 1012,3 35 30 0,0
17.07.2019 13:00:00 20,1 13,2 13 7 - - SW 1013,0 25 0 0,0
17.07.2019 12:00:00 20,5 12,6 13 7 - - SW 1013,4 27 24 0,0
17.07.2019 11:00:00 19,1 12,5 8 4 - - WSW 1013,6 26 6 0,0
17.07.2019 10:00:00 18,8 13,6 8 4 - - SSW 1014,0 26 42 0,0
17.07.2019 09:00:00 17,3 13,6 8 4 - - SSW 1014,6 19 18 0,0

tt = temperature
td = dewpoint
ff = wind speed
fx = gusts
dd = wind direction
ppp = reduced air pressure
vv = visibility
sd = sunshine duration
rr = precipitation

Next stations